Temp
74 76 73 74 75 74 73 72 73 74 75 78 78 77 74 73 71 73 72 81 80 81 82 82 82 82 82 81 81 81 81 80 80 80 80 80 80 80 79 79 79 79 79
74 75 73 73 73 76 73 74 74 74 76 77 77 78 75 74 74 76 75 75 81 81 82 82 82 82 82 82 81 81 81 81 80 80 80 80 79 79 79 79 79 79 79
74 75 75 75 76 76 75 74 75 74 74 75 74 76 76 75 77 77 75 74 76 81 82 82 81 81 81 82 82 81 81 80 80 80 79 79 79 79 79 79 79 79 78
77 75 75 74 75 74 73 72 73 72 74 72 70 71 72 76 75 77 76 75 75 79 81 82 82 81 82 82 82 81 80 80 79 79 79 79 79 79 78 78 78 78 78
77 76 75 75 76 75 73 72 74 72 71 69 73 72 71 71 75 80 77 79 75 75 75 80 81 81 83 84 83 81 81 79 79 79 79 79 79 78 78 78 77 77 77
78 76 75 76 76 75 73 72 72 71 69 68 75 73 70 72 72 76 76 79 80 76 75 77 76 76 81 83 82 82 81 81 80 79 78 78 78 78 78 77 77 77 77
78 76 75 75 74 73 75 73 71 69 67 67 67 67 68 71 71 73 73 73 74 74 74 73 73 72 76 80 79 79 81 81 81 80 79 78 78 77 77 76 76 77 77
78 76 74 73 73 75 72 71 70 65 66 67 65 61 63 68 73 72 73 73 71 73 73 73 72 71 70 71 74 77 78 78 79 78 77 76 77 76 76 76 76 76 76
79 77 75 74 72 72 71 70 69 67 65 66 66 65 60 60 66 68 73 69 69 68 69 70 71 71 70 70 72 74 76 76 77 77 76 76 75 75 75 75 75 75 75
77 77 76 74 73 72 71 70 70 67 65 65 66 69 65 65 61 62 67 67 67 69 68 68 69 70 69 67 72 74 76 76 76 76 76 76 75 76 76 76 76 75 75
76 77 75 74 73 71 71 70 68 67 66 65 64 65 64 64 62 62 60 64 67 67 67 68 68 68 68 67 66 71 75 75 75 75 75 75 75 75 76 76 76 76 76
75 75 76 73 72 71 70 69 68 67 66 66 64 64 64 63 62 62 60 61 62 65 67 67 67 67 67 66 71 74 75 74 73 74 74 74 75 76 76 77 76 77 77
71 73 73 72 72 71 70 69 68 67 66 66 66 65 64 64 64 62 62 59 61 63 66 69 67 66 69 66 68 73 75 73 72 72 72 72 73 74 75 76 76 76 77
77 75 75 75 73 72 70 69 67 67 67 66 66 65 65 65 65 64 64 62 59 59 61 64 66 68 68 67 69 74 69 71 71 70 69 70 70 72 72 73 74 74 75
76 76 76 75 74 72 70 68 67 67 67 66 66 65 65 65 65 65 65 64 63 57 58 63 65 67 67 68 69 69 68 70 70 69 68 68 68 69 70 71 71 71 71
77 75 76 75 74 72 71 68 67 67 66 66 67 65 64 64 65 65 65 64 62 61 58 61 63 65 68 70 71 69 69 71 70 69 68 67 67 68 69 69 69 69 69
77 76 76 76 74 72 70 69 67 68 66 66 67 66 66 65 65 64 64 63 62 62 60 62 62 65 66 67 68 68 68 67 67 69 69 68 67 67 68 68 68 68 68
75 77 77 76 74 73 71 70 68 70 67 66 66 65 66 68 65 63 63 63 63 62 61 59 60 62 63 66 65 65 68 71 67 70 67 67 66 66 65 65 65 65 65
74 75 76 75 74 73 72 71 70 68 68 67 67 66 66 65 64 63 63 62 63 64 62 60 60 61 62 63 64 63 64 65 68 70 68 68 66 65 64 63 62 61 61
75 75 75 75 75 74 73 72 71 68 68 68 68 68 70 68 65 65 66 63 63 62 61 60 59 59 60 62 61 60 62 61 61 69 69 68 67 67 66 65 64 64 61
79 76 75 74 73 73 74 71 72 70 69 67 67 69 72 71 70 68 68 65 63 62 61 59 58 57 57 58 58 60 62 63 63 64 61 62 61 61 65 65 67 67 64
78 74 74 73 71 75 70 68 72 71 69 69 68 66 72 71 70 68 68 67 66 63 61 58 59 56 57 58 58 59 59 59 58 65 61 58 61 61 64 63 65 65 63
76 72 72 72 71 74 67 67 69 70 68 69 67 66 68 73 69 69 66 64 64 64 63 60 58 58 58 58 59 57 57 57 56 62 57 54 57 56 61 65 64 64 63
76 73 72 72 71 72 65 64 67 71 68 67 67 67 68 68 66 66 65 64 64 63 63 63 61 61 60 60 59 59 58 57 56 56 56 52 56 55 59 60 63 63 62
76 74 72 72 71 71 63 63 64 69 65 65 66 67 68 66 63 62 64 63 62 62 63 62 62 62 61 62 62 58 58 52 52 52 55 54 55 54 55 56 59 63 62
75 73 72 73 70 72 61 60 62 66 66 66 64 67 63 65 60 59 65 63 62 62 61 61 62 60 61 60 61 58 57 53 52 51 56 54 52 51 51 54 56 57 57
MSLP
1017.64 1017.77 1018.02 1018.17 1018.16 1018.08 1018.30 1018.28 1018.14 1018.08 1017.80 1017.68 1017.74 1018.03 1018.38 1018.45 1018.66 1018.61 1018.64 1018.60 1018.54 1018.92 1019.03 1019.18 1019.47 1019.67 1019.87 1020.15 1020.34 1020.45 1020.65 1020.80 1020.90 1020.99 1020.99 1021.10 1021.25 1021.28 1021.34 1021.48 1021.55 1021.66 1021.76
1017.47 1017.65 1017.94 1018.11 1018.14 1017.89 1018.05 1017.88 1017.96 1018.01 1017.76 1017.48 1017.44 1017.34 1018.05 1018.22 1018.27 1018.30 1018.31 1018.35 1018.39 1018.53 1018.77 1019.02 1019.22 1019.43 1019.59 1019.88 1020.03 1020.16 1020.38 1020.58 1020.75 1020.91 1020.91 1021.01 1021.16 1021.26 1021.34 1021.42 1021.51 1021.61 1021.69
1017.12 1017.16 1017.31 1017.48 1017.49 1017.72 1017.69 1017.81 1017.86 1017.94 1017.90 1017.66 1017.62 1017.41 1017.56 1017.98 1017.87 1017.99 1018.13 1018.27 1018.31 1018.38 1018.53 1018.69 1018.92 1019.19 1019.49 1019.57 1019.64 1019.89 1020.10 1020.29 1020.47 1020.64 1020.87 1020.98 1021.08 1021.14 1021.25 1021.33 1021.39 1021.47 1021.57
1016.91 1017.04 1017.09 1017.34 1017.34 1017.50 1017.65 1017.73 1017.85 1018.00 1018.09 1018.08 1018.09 1018.09 1017.72 1017.34 1017.76 1017.67 1017.74 1018.00 1018.08 1018.16 1018.26 1018.50 1018.82 1018.96 1019.14 1019.37 1019.59 1019.69 1019.82 1020.05 1020.31 1020.44 1020.61 1020.80 1020.98 1021.07 1021.12 1021.16 1021.24 1021.31 1021.38
1016.73 1016.85 1016.89 1017.05 1017.15 1017.40 1017.65 1017.89 1017.95 1018.07 1018.35 1018.44 1018.13 1018.05 1018.05 1017.93 1017.51 1017.24 1017.74 1017.82 1017.96 1018.07 1018.34 1018.39 1018.57 1018.70 1018.85 1019.05 1019.25 1019.54 1019.60 1019.72 1019.97 1020.18 1020.27 1020.33 1020.51 1020.68 1020.85 1020.94 1021.04 1021.19 1021.21
1016.31 1016.66 1016.80 1016.83 1017.15 1017.35 1017.67 1017.80 1017.98 1018.22 1018.33 1018.30 1018.18 1018.19 1018.10 1018.03 1017.85 1017.47 1017.58 1017.67 1017.53 1017.90 1018.21 1018.47 1018.62 1018.73 1018.78 1018.83 1018.93 1019.12 1019.19 1019.30 1019.47 1019.71 1019.94 1020.00 1020.31 1020.44 1020.52 1020.63 1020.78 1020.87 1021.02
1016.14 1016.40 1016.64 1016.85 1017.08 1017.47 1017.54 1017.93 1018.08 1018.34 1018.38 1018.36 1018.47 1018.37 1018.42 1018.15 1018.12 1018.10 1018.09 1018.13 1018.22 1018.34 1018.33 1018.64 1018.84 1018.78 1018.78 1018.97 1019.04 1019.00 1018.94 1019.10 1019.25 1019.50 1019.65 1019.80 1019.82 1020.04 1020.18 1020.28 1020.43 1020.57 1020.68
1015.67 1016.05 1016.38 1016.76 1016.92 1017.32 1017.64 1017.84 1018.05 1018.54 1018.57 1018.39 1018.91 1019.25 1019.30 1019.04 1018.66 1018.56 1018.74 1018.54 1018.74 1018.60 1018.61 1018.75 1018.91 1019.03 1019.16 1019.31 1019.40 1019.30 1019.27 1019.30 1019.36 1019.51 1019.63 1019.68 1019.55 1019.62 1019.80 1019.89 1019.99 1020.11 1020.24
1015.29 1015.76 1016.08 1016.39 1016.85 1017.21 1017.49 1017.77 1018.08 1018.45 1018.82 1018.82 1018.66 1019.03 1019.76 1019.72 1019.33 1019.17 1019.13 1019.04 1019.07 1019.11 1019.02 1019.02 1019.02 1019.10 1019.19 1019.32 1019.43 1019.47 1019.55 1019.55 1019.58 1019.65 1019.70 1019.74 1019.81 1019.84 1019.91 1019.83 1019.78 1019.80 1019.84
1015.15 1015.42 1015.73 1016.07 1016.48 1016.75 1017.29 1017.60 1017.97 1018.27 1018.68 1019.06 1018.81 1018.54 1018.80 1019.13 1019.77 1019.94 1019.55 1019.53 1019.42 1019.34 1019.28 1019.25 1019.12 1019.14 1019.21 1019.33 1019.44 1019.55 1019.57 1019.67 1019.66 1019.70 1019.79 1019.82 1019.81 1019.83 1019.84 1019.81 1019.79 1019.81 1019.78
1014.77 1015.08 1015.46 1015.89 1016.29 1016.59 1017.05 1017.43 1017.78 1018.11 1018.36 1018.81 1019.15 1019.14 1019.13 1019.25 1019.45 1020.01 1020.24 1019.83 1019.61 1019.47 1019.44 1019.24 1019.23 1019.26 1019.28 1019.36 1019.44 1019.47 1019.51 1019.62 1019.70 1019.75 1019.76 1019.78 1019.78 1019.80 1019.81 1019.76 1019.73 1019.69 1019.63
1014.63 1014.78 1015.23 1015.62 1015.76 1016.28 1016.78 1017.15 1017.62 1018.01 1018.32 1018.59 1018.95 1019.02 1019.07 1019.28 1019.55 1019.74 1020.26 1020.20 1019.96 1019.51 1019.32 1019.27 1019.37 1019.39 1019.26 1019.39 1019.40 1019.43 1019.40 1019.56 1019.69 1019.68 1019.62 1019.59 1019.61 1019.59 1019.59 1019.61 1019.59 1019.59 1019.52
1014.36 1014.75 1015.01 1015.50 1015.66 1016.00 1016.28 1016.69 1017.34 1017.76 1018.02 1018.29 1018.59 1018.91 1018.94 1018.95 1019.09 1019.36 1019.72 1020.09 1020.10 1019.68 1019.30 1019.10 1018.99 1019.21 1019.32 1019.51 1019.34 1019.26 1019.32 1019.38 1019.50 1019.53 1019.47 1019.41 1019.42 1019.47 1019.52 1019.47 1019.39 1019.43 1019.39
1013.60 1014.11 1014.50 1014.90 1015.01 1015.53 1016.05 1016.59 1017.23 1017.59 1017.89 1018.16 1018.37 1018.54 1018.74 1018.74 1018.83 1018.91 1019.13 1019.68 1020.28 1020.23 1019.88 1019.41 1018.91 1018.80 1018.85 1019.07 1019.09 1019.07 1019.19 1019.22 1019.25 1019.27 1019.17 1019.11 1019.11 1019.14 1019.21 1019.27 1019.25 1019.23 1019.18
1013.15 1013.52 1014.02 1014.54 1014.84 1015.31 1015.59 1016.30 1016.84 1017.25 1017.58 1017.92 1018.26 1018.46 1018.57 1018.69 1018.69 1018.63 1018.72 1019.07 1019.57 1020.41 1020.28 1019.55 1019.18 1018.52 1018.41 1018.54 1018.78 1019.01 1018.98 1018.75 1018.79 1018.75 1018.73 1018.82 1018.80 1018.67 1018.67 1018.73 1018.83 1018.89 1018.86
1012.60 1013.19 1013.70 1014.02 1014.48 1014.89 1015.34 1015.98 1016.46 1016.88 1017.34 1017.65 1017.89 1018.18 1018.46 1018.46 1018.59 1018.64 1018.60 1018.74 1019.16 1019.65 1020.11 1019.59 1019.21 1018.71 1018.40 1018.40 1018.44 1018.52 1018.56 1018.51 1018.44 1018.36 1018.44 1018.47 1018.37 1018.27 1018.20 1018.21 1018.25 1018.30 1018.28
1012.03 1012.61 1013.05 1013.52 1013.97 1014.55 1015.11 1015.63 1016.07 1016.47 1016.96 1017.37 1017.59 1017.82 1017.97 1018.23 1018.42 1018.55 1018.56 1018.67 1019.03 1019.31 1019.65 1019.24 1019.05 1018.69 1018.54 1018.53 1018.30 1018.26 1018.22 1018.30 1018.23 1018.13 1018.00 1017.96 1017.79 1017.69 1017.73 1017.65 1017.59 1017.56 1017.55
1011.27 1011.65 1012.24 1012.82 1013.31 1013.90 1014.50 1015.01 1015.64 1015.99 1016.42 1016.93 1017.28 1017.60 1017.64 1017.78 1018.12 1018.31 1018.53 1018.64 1018.76 1018.88 1019.28 1019.60 1019.29 1018.94 1018.71 1018.40 1018.32 1018.31 1017.93 1017.70 1017.78 1017.64 1017.66 1017.64 1017.44 1017.31 1017.30 1017.22 1017.07 1017.03 1016.97
1010.49 1011.03 1011.46 1011.95 1012.68 1013.34 1013.90 1014.37 1014.84 1015.27 1015.62 1016.03 1016.50 1016.87 1017.16 1017.50 1017.78 1018.05 1018.32 1018.49 1018.55 1018.73 1018.96 1019.15 1019.22 1018.94 1018.71 1018.40 1018.23 1018.05 1017.92 1017.55 1017.37 1017.27 1017.16 1017.02 1017.06 1017.10 1016.97 1016.81 1016.59 1016.43 1016.45
1009.59 1010.15 1010.63 1011.31 1012.01 1012.67 1013.15 1013.80 1014.26 1014.67 1015.01 1015.38 1015.75 1016.18 1016.40 1016.81 1017.27 1017.56 1017.79 1018.09 1018.34 1018.62 1018.81 1019.00 1019.10 1019.11 1019.04 1018.60 1018.64 1018.59 1018.32 1018.03 1017.75 1017.26 1017.12 1016.86 1016.81 1016.79 1016.65 1016.37 1016.16 1016.05 1015.98
1008.39 1009.23 1010.10 1010.86 1011.49 1012.00 1012.60 1013.14 1013.47 1013.75 1014.26 1014.70 1015.07 1015.54 1015.84 1015.98 1016.36 1016.71 1017.25 1017.63 1018.02 1018.29 1018.59 1018.86 1019.10 1019.06 1018.96 1018.90 1018.78 1018.46 1018.33 1017.97 1017.63 1017.28 1017.11 1016.94 1016.78 1016.69 1016.30 1015.96 1015.77 1015.55 1015.40
1007.74 1008.68 1009.39 1010.11 1010.79 1011.33 1011.69 1012.14 1012.62 1013.16 1013.68 1014.05 1014.34 1014.81 1015.23 1015.54 1015.80 1016.16 1016.49 1016.82 1017.08 1017.61 1018.00 1018.53 1018.60 1018.91 1018.62 1018.42 1018.29 1018.42 1018.40 1018.25 1017.79 1016.71 1017.12 1016.94 1016.64 1016.56 1016.03 1015.78 1015.28 1014.89 1014.77
1007.07 1007.85 1008.59 1009.33 1010.01 1010.44 1010.80 1011.38 1011.92 1012.46 1013.31 1013.67 1014.18 1014.56 1014.89 1015.09 1015.36 1015.66 1015.93 1016.40 1016.47 1016.75 1017.01 1017.40 1017.70 1017.77 1017.83 1017.72 1017.76 1017.91 1017.97 1017.96 1017.74 1017.00 1017.13 1016.94 1016.34 1016.14 1015.38 1015.05 1014.81 1014.60 1014.27
1005.93 1006.74 1007.67 1008.39 1009.07 1009.50 1010.04 1010.65 1011.47 1012.00 1012.31 1012.64 1013.13 1013.76 1014.22 1014.43 1014.80 1015.11 1015.66 1016.02 1016.00 1016.17 1016.30 1016.61 1016.89 1016.91 1017.21 1017.17 1017.32 1017.36 1017.42 1017.42 1017.06 1016.63 1016.84 1016.88 1015.88 1015.85 1015.01 1014.72 1014.36 1014.08 1014.05
1005.14 1005.85 1006.65 1007.38 1008.02 1008.61 1008.93 1009.60 1010.38 1011.12 1012.35 1012.79 1013.09 1013.25 1013.65 1014.05 1014.43 1014.93 1015.46 1015.75 1016.07 1015.98 1016.23 1016.10 1016.05 1016.00 1016.11 1016.32 1016.51 1016.95 1017.02 1017.51 1017.31 1016.50 1016.00 1016.12 1015.74 1015.47 1014.89 1014.42 1013.94 1013.74 1013.50
1004.37 1005.24 1006.11 1006.66 1007.59 1008.46 1009.11 1009.80 1010.70 1011.21 1011.57 1012.02 1012.52 1012.87 1013.10 1013.68 1014.15 1014.47 1014.97 1015.42 1015.70 1015.63 1015.90 1016.30 1016.28 1016.01 1015.86 1015.99 1016.03 1016.16 1016.15 1016.70 1016.88 1016.41 1015.22 1015.62 1015.52 1015.44 1014.88 1013.90 1013.54 1013.19 1012.88
Wind_Speed
4 4 3 3 3 3 2 2 2 2 1 2 3 7 6 5 5 3 2 8 11 12 12 15 15 15 14 14 13 12 12 12 11 11 12 11 10 9 9 8 7 6 5
4 4 4 4 3 3 4 3 1 0 2 3 2 3 7 6 4 5 4 5 14 14 15 14 15 15 14 15 15 14 13 13 12 11 12 11 10 10 10 9 8 7 5
5 5 4 2 1 4 4 2 2 1 2 3 5 4 1 6 7 7 5 4 4 13 12 13 13 13 14 15 15 15 15 13 13 12 11 10 10 10 9 10 9 8 7
6 5 3 3 3 3 3 2 1 2 0 3 1 3 3 3 3 7 5 4 4 5 11 11 10 11 13 13 13 14 14 13 13 12 12 11 11 10 10 10 10 9 8
7 5 4 3 3 3 2 2 1 2 2 1 2 2 2 1 4 2 4 6 5 4 3 7 9 9 11 11 11 10 12 12 13 13 13 13 13 13 12 11 11 10 10
7 5 4 4 4 3 3 2 2 2 1 1 2 3 2 1 3 3 5 3 5 4 4 3 1 3 7 7 8 9 9 9 12 13 13 14 13 13 12 12 11 11 11
6 6 4 3 4 4 4 3 2 1 1 1 2 3 3 3 2 4 4 4 5 3 6 5 3 2 3 5 5 2 6 8 8 9 11 13 13 13 13 12 11 11 12
7 6 5 5 4 4 5 4 3 1 1 0 2 2 3 4 4 4 2 4 6 3 4 5 5 5 4 3 4 6 6 6 6 5 5 6 7 10 9 11 12 12 13
7 6 6 5 5 4 5 4 4 4 1 2 1 4 3 3 0 2 2 3 4 2 3 4 5 5 5 4 5 5 6 6 6 6 5 6 6 5 4 4 4 6 10
7 6 6 6 6 4 5 4 4 3 4 2 2 1 2 4 3 1 2 0 1 3 5 3 4 5 5 4 7 8 8 6 5 4 3 3 3 4 3 4 5 6 6
7 7 6 6 6 5 5 6 5 4 3 3 1 1 2 3 3 3 1 3 1 3 4 4 4 4 5 4 4 7 10 8 6 5 3 0 2 3 4 4 4 5 6
6 6 7 6 6 6 7 6 5 5 4 4 2 2 2 3 2 3 2 2 1 3 3 3 4 4 4 4 7 10 11 9 8 7 7 5 4 4 4 4 5 6 7
3 6 7 7 6 6 7 6 6 5 5 4 5 3 2 2 3 2 3 1 2 2 2 3 4 4 2 3 5 11 12 11 10 10 10 10 9 8 8 8 8 9 8
9 10 10 9 9 8 7 6 4 4 4 4 5 4 3 2 1 2 4 4 1 2 2 2 1 4 5 5 8 13 6 12 12 12 12 12 12 11 10 11 11 11 11
7 10 12 10 10 9 9 8 5 5 5 4 5 4 3 2 2 2 2 3 5 2 2 3 1 2 3 5 7 6 7 10 12 13 13 12 13 13 12 12 12 13 13
9 10 11 12 11 10 9 8 6 5 6 4 4 5 3 2 3 1 2 3 3 4 2 4 3 2 1 1 6 7 7 10 12 13 12 13 14 12 13 13 14 14 15
13 12 13 13 12 11 8 8 7 7 7 6 5 6 7 4 3 2 2 2 3 3 3 3 3 2 2 3 4 3 5 6 5 10 12 14 14 13 13 13 14 17 18
11 13 14 14 13 12 11 11 10 8 8 8 7 6 7 3 6 5 3 4 3 4 4 4 2 2 4 4 5 5 4 3 4 6 9 11 11 10 11 13 14 13 14
12 12 14 15 14 13 12 11 11 9 10 9 8 8 7 7 6 3 5 5 3 2 3 3 3 1 2 2 3 2 1 3 3 6 8 9 6 6 8 8 8 9 10
12 13 13 13 14 13 13 12 11 10 10 9 9 9 9 9 7 7 5 6 4 4 2 2 2 2 2 2 1 2 4 2 3 2 4 6 5 5 7 7 8 9 10
15 14 12 11 10 11 10 12 13 13 12 9 8 9 10 11 13 10 6 6 5 4 3 3 3 1 2 2 3 2 3 3 3 4 3 3 2 4 7 7 8 10 11
14 11 13 13 12 10 15 17 16 12 11 11 10 7 8 11 12 13 13 11 11 7 5 4 2 3 4 4 3 3 2 2 3 2 3 4 2 5 5 4 11 12 13
13 12 13 13 13 14 17 19 18 9 8 9 7 6 6 7 9 7 8 5 7 9 6 6 6 6 4 5 3 3 4 4 5 6 2 5 2 4 5 6 11 12 14
15 13 14 14 13 12 17 18 15 12 10 8 9 8 7 7 7 7 5 6 6 6 5 5 5 5 6 5 5 4 4 4 3 4 4 4 2 4 4 5 12 13 12
13 13 14 15 15 12 19 18 17 10 5 6 6 7 9 7 6 6 7 7 5 4 7 10 12 12 11 10 9 1 6 2 4 4 4 4 4 4 3 4 6 13 15
13 11 13 13 14 11 14 10 9 5 7 7 5 5 8 7 11 11 8 6 7 8 4 5 3 3 4 6 9 6 4 4 4 3 4 4 2 2 5 3 3 5 5
Wind_Direction
175 164 186 218 242 159 182 220 245 317 315 258 180 139 176 201 195 201 202 198 188 204 209 196 199 197 196 200 202 201 203 205 207 208 199 192 197 197 200 206 208 210 238
173 177 161 182 181 173 190 196 179 173 309 316 344 256 167 192 224 211 200 210 199 208 210 201 203 202 205 207 209 208 208 210 210 217 213 204 205 208 215 217 222 234 234
180 165 171 161 179 176 172 186 130 37 40 5 13 347 334 172 213 205 209 204 220 225 215 202 204 206 212 216 217 218 213 209 211 211 217 217 216 220 220 227 227 237 242
183 181 178 164 209 164 156 165 123 48 334 40 1 311 281 289 197 193 183 197 198 213 220 200 205 203 213 224 229 229 229 224 217 213 212 218 231 234 232 232 228 234 239
182 181 175 201 184 165 154 173 120 135 54 334 314 13 7 321 244 160 145 190 205 197 169 210 205 213 218 221 229 230 232 229 226 220 217 218 222 227 232 227 229 237 240
178 183 194 198 174 157 158 156 125 48 183 225 9 345 342 3 306 88 118 118 98 125 144 137 157 244 219 230 221 223 227 223 220 226 231 228 229 230 229 230 235 235 241
190 191 200 194 166 172 175 162 128 95 338 40 38 356 4 36 16 99 108 105 90 73 105 106 92 64 91 99 72 60 223 228 226 226 229 237 238 235 232 230 232 240 243
187 200 176 202 183 147 149 155 142 129 288 84 117 78 23 355 16 44 40 118 130 131 122 127 124 108 106 105 91 81 76 78 70 67 35 4 260 247 250 243 234 235 238
185 188 188 185 174 154 161 173 158 127 168 342 148 138 79 215 54 346 53 60 130 143 121 147 146 146 145 138 117 101 99 89 81 69 53 39 27 14 355 336 322 279 264
189 196 184 179 167 164 164 175 154 149 127 188 324 93 87 138 153 38 344 68 163 163 169 207 167 167 162 154 156 160 142 131 118 97 64 50 36 21 2 335 317 304 290
185 190 175 167 164 169 167 167 162 165 148 141 170 126 60 54 84 118 222 310 334 206 221 193 185 185 184 180 172 175 165 165 164 159 156 146 337 334 329 324 320 317 314
191 181 170 175 163 162 167 173 171 167 153 130 134 113 148 151 188 136 125 244 237 278 224 198 206 209 199 188 191 192 180 188 189 196 203 214 245 273 286 299 306 309 314
161 182 175 176 174 173 169 162 165 176 166 161 166 173 184 141 156 141 120 174 178 297 328 233 216 198 216 218 212 195 200 202 208 212 218 223 229 244 269 277 280 282 290
181 182 183 180 176 172 165 165 165 174 172 179 179 175 176 167 162 168 161 142 21 337 330 282 291 203 195 203 222 206 211 215 215 227 232 229 232 232 237 249 260 269 272
179 183 180 181 180 179 172 166 173 179 179 185 213 205 185 193 187 173 137 143 149 180 274 284 281 294 184 173 208 209 220 228 224 227 232 232 237 234 236 244 248 249 250
194 180 184 187 183 184 173 170 172 179 182 198 200 202 218 198 204 197 157 151 147 153 203 210 262 276 254 216 217 211 228 237 243 241 242 240 247 247 239 236 243 247 247
194 183 187 191 189 184 174 177 180 178 187 202 210 206 222 204 206 194 147 145 152 141 181 287 232 245 278 268 289 260 240 248 252 249 249 250 252 258 262 255 245 244 244
188 190 189 192 192 188 180 186 184 191 190 197 208 208 223 205 213 209 202 209 194 185 152 233 271 271 222 243 242 260 257 233 231 244 243 255 266 272 263 267 268 260 251
185 188 189 191 191 190 187 192 189 188 196 196 197 198 203 200 212 206 209 213 210 187 181 178 256 292 272 301 331 335 314 323 303 287 288 288 294 271 267 270 272 275 275
186 192 191 190 191 189 191 190 190 195 199 198 202 207 207 201 203 212 215 220 195 188 199 211 235 271 263 308 294 266 306 339 298 294 292 269 302 301 296 297 279 268 259
201 193 185 186 184 187 187 190 196 201 201 200 199 209 216 206 202 204 201 220 204 202 197 204 227 249 267 284 249 244 241 245 269 243 274 299 311 311 299 296 281 274 271
199 178 184 180 178 189 192 188 195 201 203 207 210 207 223 202 210 215 212 205 195 190 202 191 203 211 246 218 209 229 258 296 301 221 179 272 217 273 270 255 270 284 288
183 175 177 176 185 196 188 190 197 199 203 207 204 195 215 222 205 211 214 241 207 220 206 179 215 210 236 218 192 222 226 216 231 263 134 268 227 268 275 285 280 280 288
185 175 176 181 185 198 187 190 186 202 197 188 189 193 205 209 198 184 195 221 223 220 208 202 216 254 238 244 205 223 254 248 268 264 159 234 228 249 266 259 267 267 271
183 179 176 182 190 192 181 182 190 189 176 205 212 197 203 203 203 193 186 211 238 246 241 228 225 235 233 238 244 180 270 216 276 264 213 192 251 245 227 246 248 256 264
181 170 179 187 187 190 191 170 168 172 180 199 197 208 193 192 183 186 195 212 245 241 220 288 292 282 280 285 279 200 213 226 242 298 258 168 249 220 295 239 239 254 252